Location: Tel Aviv
(32.0670°N, 34.7670°E)
Time: 03:14:48
(UTC+03:00)

Tiros 1 - Pass Details

Date: 27 January 2022
Orbit: 629 x 663 km, 48.4° (Epoch: 26 May)

Event Time Altitude Azimuth Distance (km) Brightness Sun altitude
Rises 23:54:36 0° 297° (WNW) 2,992 - -76.5°
Reaches altitude 10° 23:58:36 10° 330° (NNW) 2,077 - -76.4°
Maximum altitude 00:00:20 12° 351° (N) 1,960 - -76.4°
Drops below altitude 10° 00:02:03 10° 13° (NNE) 2,074 - -76.3°
Sets 00:06:02 0° 45° (NE) 2,979 - -76.2°
